Year,Month,Day,Hour,Minute,Value (Times are PST for temperature in C)
2006,07,22,00,00,22.90
2006,07,22,00,01,22.90
2006,07,22,00,02,22.90
2006,07,22,00,03,22.90
2006,07,22,00,04,22.90
2006,07,22,00,05,22.90
2006,07,22,00,06,22.90
2006,07,22,00,07,22.90
2006,07,22,00,08,22.90
2006,07,22,00,09,22.90
2006,07,22,00,10,22.90
2006,07,22,00,11,22.90
2006,07,22,00,12,22.90
2006,07,22,00,13,22.90
2006,07,22,00,14,22.90
2006,07,22,00,15,22.90
2006,07,22,00,16,22.80
2006,07,22,00,17,22.80
2006,07,22,00,18,22.80
2006,07,22,00,19,22.80
2006,07,22,00,20,22.80
2006,07,22,00,21,22.80
2006,07,22,00,22,22.80
2006,07,22,00,23,22.70
2006,07,22,00,24,22.70
2006,07,22,00,25,22.70
2006,07,22,00,26,22.70
2006,07,22,00,27,22.60
2006,07,22,00,28,22.60
2006,07,22,00,29,22.60
2006,07,22,00,30,22.60
2006,07,22,00,31,22.50
2006,07,22,00,32,22.50
2006,07,22,00,33,22.40
2006,07,22,00,34,22.40
2006,07,22,00,35,22.40
2006,07,22,00,36,22.30
2006,07,22,00,37,22.30
2006,07,22,00,38,22.30
2006,07,22,00,39,22.30
2006,07,22,00,40,22.20
2006,07,22,00,41,22.20
2006,07,22,00,42,22.20
2006,07,22,00,43,22.20
2006,07,22,00,44,22.20
2006,07,22,00,45,22.20
2006,07,22,00,46,22.20
2006,07,22,00,47,22.20
2006,07,22,00,48,22.20
2006,07,22,00,49,22.20
2006,07,22,00,50,22.20
2006,07,22,00,51,22.20
2006,07,22,00,52,22.20
2006,07,22,00,53,22.20
2006,07,22,00,54,22.20
2006,07,22,00,55,22.20
2006,07,22,00,56,22.20
2006,07,22,00,57,22.10
2006,07,22,00,58,22.10
2006,07,22,00,59,22.10
2006,07,22,01,00,22.10
2006,07,22,01,01,22.10
2006,07,22,01,02,22.00
2006,07,22,01,03,22.00
2006,07,22,01,04,22.00
2006,07,22,01,05,22.00
2006,07,22,01,06,22.00
2006,07,22,01,07,22.00
2006,07,22,01,08,21.90
2006,07,22,01,09,21.90
2006,07,22,01,10,21.90
2006,07,22,01,11,21.90
2006,07,22,01,12,21.90
2006,07,22,01,13,21.90
2006,07,22,01,14,21.90
2006,07,22,01,15,21.90
2006,07,22,01,16,21.80
2006,07,22,01,17,21.80
2006,07,22,01,18,21.80
2006,07,22,01,19,21.80
2006,07,22,01,20,21.80
2006,07,22,01,21,21.80
2006,07,22,01,22,21.80
2006,07,22,01,23,21.70
2006,07,22,01,24,21.70
2006,07,22,01,25,21.70
2006,07,22,01,26,21.70
2006,07,22,01,27,21.60
2006,07,22,01,28,21.60
2006,07,22,01,29,21.60
2006,07,22,01,30,21.60
2006,07,22,01,31,21.60
2006,07,22,01,32,21.60
2006,07,22,01,33,21.60
2006,07,22,01,34,21.40
2006,07,22,01,35,21.40
2006,07,22,01,36,21.40
2006,07,22,01,37,21.40
2006,07,22,01,38,21.30
2006,07,22,01,39,21.30
2006,07,22,01,40,21.30
2006,07,22,01,41,21.30
2006,07,22,01,42,21.30
2006,07,22,01,43,21.30
2006,07,22,01,44,21.30
2006,07,22,01,45,21.30
2006,07,22,01,46,21.30
2006,07,22,01,47,21.30
2006,07,22,01,48,21.20
2006,07,22,01,49,21.20
2006,07,22,01,50,21.20
2006,07,22,01,51,21.20
2006,07,22,01,52,21.20
2006,07,22,01,53,21.20
2006,07,22,01,54,21.20
2006,07,22,01,55,21.20
2006,07,22,01,56,21.20
2006,07,22,01,57,21.20
2006,07,22,01,58,21.20
2006,07,22,01,59,21.20
2006,07,22,02,00,21.20
2006,07,22,02,01,21.20
2006,07,22,02,02,21.20
2006,07,22,02,03,21.20
2006,07,22,02,04,21.20
2006,07,22,02,05,21.20
2006,07,22,02,06,21.10
2006,07,22,02,07,21.10
2006,07,22,02,08,21.10
2006,07,22,02,09,21.10
2006,07,22,02,10,21.10
2006,07,22,02,11,21.10
2006,07,22,02,12,21.10
2006,07,22,02,13,21.00
2006,07,22,02,14,21.00
2006,07,22,02,15,21.00
2006,07,22,02,16,21.10
2006,07,22,02,17,21.10
2006,07,22,02,18,21.10
2006,07,22,02,19,21.10
2006,07,22,02,20,21.10
2006,07,22,02,21,21.10
2006,07,22,02,22,21.10
2006,07,22,02,23,21.10
2006,07,22,02,24,21.10
2006,07,22,02,25,21.20
2006,07,22,02,26,21.20
2006,07,22,02,27,21.20
2006,07,22,02,28,21.30
2006,07,22,02,29,21.30
2006,07,22,02,30,21.30
2006,07,22,02,31,21.30
2006,07,22,02,32,21.30
2006,07,22,02,33,21.30
2006,07,22,02,34,21.30
2006,07,22,02,35,21.30
2006,07,22,02,36,21.30
2006,07,22,02,37,21.30
2006,07,22,02,38,21.30
2006,07,22,02,39,21.30
2006,07,22,02,40,21.30
2006,07,22,02,41,21.30
2006,07,22,02,42,21.30
2006,07,22,02,43,21.30
2006,07,22,02,44,21.20
2006,07,22,02,45,21.20
2006,07,22,02,46,21.20
2006,07,22,02,47,21.10
2006,07,22,02,48,21.10
2006,07,22,02,49,21.10
2006,07,22,02,50,21.10
2006,07,22,02,51,21.00
2006,07,22,02,52,21.00
2006,07,22,02,53,21.00
2006,07,22,02,54,21.00
2006,07,22,02,55,21.00
2006,07,22,02,56,20.90
2006,07,22,02,57,20.90
2006,07,22,02,58,20.90
2006,07,22,02,59,20.90
2006,07,22,03,00,20.90
2006,07,22,03,01,20.90
2006,07,22,03,02,20.90
2006,07,22,03,03,20.90
2006,07,22,03,04,20.90
2006,07,22,03,05,20.90
2006,07,22,03,06,20.90
2006,07,22,03,07,20.90
2006,07,22,03,08,20.90
2006,07,22,03,09,20.90
2006,07,22,03,10,20.90
2006,07,22,03,11,20.90
2006,07,22,03,12,20.90
2006,07,22,03,13,20.90
2006,07,22,03,14,20.90
2006,07,22,03,15,20.90
2006,07,22,03,16,20.90
2006,07,22,03,17,20.90
2006,07,22,03,18,20.90
2006,07,22,03,19,20.90
2006,07,22,03,20,20.90
2006,07,22,03,21,20.90
2006,07,22,03,22,20.90
2006,07,22,03,23,20.90
2006,07,22,03,24,20.90
2006,07,22,03,25,20.90
2006,07,22,03,26,20.90
2006,07,22,03,27,20.90
2006,07,22,03,28,20.90
2006,07,22,03,29,20.90
2006,07,22,03,30,20.90
2006,07,22,03,31,20.90
2006,07,22,03,32,20.90
2006,07,22,03,33,20.90
2006,07,22,03,34,20.90
2006,07,22,03,35,20.90
2006,07,22,03,36,20.90
2006,07,22,03,37,20.90
2006,07,22,03,38,20.90
2006,07,22,03,39,20.90
2006,07,22,03,40,20.90
2006,07,22,03,41,20.90
2006,07,22,03,42,20.80
2006,07,22,03,43,20.80
2006,07,22,03,44,20.80
2006,07,22,03,45,20.80
2006,07,22,03,46,20.80
2006,07,22,03,47,20.80
2006,07,22,03,48,20.80
2006,07,22,03,49,20.70
2006,07,22,03,50,20.70
2006,07,22,03,51,20.70
2006,07,22,03,52,20.70
2006,07,22,03,53,20.70
2006,07,22,03,54,20.60
2006,07,22,03,55,20.60
2006,07,22,03,56,20.60
2006,07,22,03,57,20.60
2006,07,22,03,58,20.60
2006,07,22,03,59,20.50
2006,07,22,04,00,20.50
2006,07,22,04,01,20.50
2006,07,22,04,02,20.50
2006,07,22,04,03,20.50
2006,07,22,04,04,20.50
2006,07,22,04,05,20.40
2006,07,22,04,06,20.40
2006,07,22,04,07,20.40
2006,07,22,04,08,20.40
2006,07,22,04,09,20.40
2006,07,22,04,10,20.40
2006,07,22,04,11,20.40
2006,07,22,04,12,20.40
2006,07,22,04,13,20.40
2006,07,22,04,14,20.50
2006,07,22,04,15,20.50
2006,07,22,04,16,20.50
2006,07,22,04,17,20.50
2006,07,22,04,18,20.50
2006,07,22,04,19,20.50
2006,07,22,04,20,20.60
2006,07,22,04,21,20.60
2006,07,22,04,22,20.60
2006,07,22,04,23,20.60
2006,07,22,04,24,20.60
2006,07,22,04,25,20.60
2006,07,22,04,26,20.70
2006,07,22,04,27,20.70
2006,07,22,04,28,20.70
2006,07,22,04,29,20.70
2006,07,22,04,30,20.70
2006,07,22,04,31,20.70
2006,07,22,04,32,20.70
2006,07,22,04,33,20.70
2006,07,22,04,34,20.70
2006,07,22,04,35,20.70
2006,07,22,04,36,20.70
2006,07,22,04,37,20.70
2006,07,22,04,38,20.70
2006,07,22,04,39,20.70
2006,07,22,04,40,20.70
2006,07,22,04,41,20.70
2006,07,22,04,42,20.70
2006,07,22,04,43,20.70
2006,07,22,04,44,20.70
2006,07,22,04,45,20.70
2006,07,22,04,46,20.70
2006,07,22,04,47,20.70
2006,07,22,04,48,20.70
2006,07,22,04,49,20.70
2006,07,22,04,50,20.70
2006,07,22,04,51,20.70
2006,07,22,04,52,20.70
2006,07,22,04,53,20.60
2006,07,22,04,54,20.60
2006,07,22,04,55,20.60
2006,07,22,04,56,20.60
2006,07,22,04,57,20.60
2006,07,22,04,58,20.60
2006,07,22,04,59,20.50
2006,07,22,05,00,20.50
2006,07,22,05,01,20.50
2006,07,22,05,02,20.50
2006,07,22,05,03,20.50
2006,07,22,05,04,20.50
2006,07,22,05,05,20.50
2006,07,22,05,06,20.40
2006,07,22,05,07,20.40
2006,07,22,05,08,20.40
2006,07,22,05,09,20.40
2006,07,22,05,10,20.40
2006,07,22,05,11,20.30
2006,07,22,05,12,20.30
2006,07,22,05,13,20.30
2006,07,22,05,14,20.30
2006,07,22,05,15,20.30
2006,07,22,05,16,20.30
2006,07,22,05,17,20.30
2006,07,22,05,18,20.30
2006,07,22,05,19,20.20
2006,07,22,05,20,20.20
2006,07,22,05,21,20.20
2006,07,22,05,22,20.30
2006,07,22,05,23,20.30
2006,07,22,05,24,20.40
2006,07,22,05,25,20.50
2006,07,22,05,26,20.50
2006,07,22,05,27,20.70
2006,07,22,05,28,20.70
2006,07,22,05,29,20.80
2006,07,22,05,30,20.90
2006,07,22,05,31,21.00
2006,07,22,05,32,21.00
2006,07,22,05,33,21.10
2006,07,22,05,34,21.10
2006,07,22,05,35,21.10
2006,07,22,05,36,21.10
2006,07,22,05,37,21.10
2006,07,22,05,38,21.10
2006,07,22,05,39,21.10
2006,07,22,05,40,21.10
2006,07,22,05,41,21.10
2006,07,22,05,42,21.10
2006,07,22,05,43,21.00
2006,07,22,05,44,21.00
2006,07,22,05,45,21.00
2006,07,22,05,46,21.00
2006,07,22,05,47,21.00
2006,07,22,05,48,20.90
2006,07,22,05,49,20.90
2006,07,22,05,50,20.90
2006,07,22,05,51,20.90
2006,07,22,05,52,20.80
2006,07,22,05,53,20.80
2006,07,22,05,54,20.80
2006,07,22,05,55,20.70
2006,07,22,05,56,20.70
2006,07,22,05,57,20.70
2006,07,22,05,58,20.70
2006,07,22,05,59,20.70
2006,07,22,06,00,20.70
2006,07,22,06,01,20.70
2006,07,22,06,02,20.70
2006,07,22,06,03,20.70
2006,07,22,06,04,20.70
2006,07,22,06,05,20.70
2006,07,22,06,06,20.70
2006,07,22,06,07,20.70
2006,07,22,06,08,20.70
2006,07,22,06,09,20.70
2006,07,22,06,10,20.70
2006,07,22,06,11,20.70
2006,07,22,06,12,20.70
2006,07,22,06,13,20.70
2006,07,22,06,14,20.70
2006,07,22,06,15,20.70
2006,07,22,06,16,20.70
2006,07,22,06,17,20.70
2006,07,22,06,18,20.70
2006,07,22,06,19,20.70
2006,07,22,06,20,20.70
2006,07,22,06,21,20.70
2006,07,22,06,22,20.70
2006,07,22,06,23,20.70
2006,07,22,06,24,20.70
2006,07,22,06,25,20.70
2006,07,22,06,26,20.70
2006,07,22,06,27,20.70
2006,07,22,06,28,20.70
2006,07,22,06,29,20.70
2006,07,22,06,30,20.70
2006,07,22,06,31,20.70
2006,07,22,06,32,20.70
2006,07,22,06,33,20.70
2006,07,22,06,34,20.70
2006,07,22,06,35,20.70
2006,07,22,06,36,20.70
2006,07,22,06,37,20.70
2006,07,22,06,38,20.80
2006,07,22,06,39,20.80
2006,07,22,06,40,20.80
2006,07,22,06,41,20.90
2006,07,22,06,42,21.00
2006,07,22,06,43,21.00
2006,07,22,06,44,21.10
2006,07,22,06,45,21.10
2006,07,22,06,46,21.20
2006,07,22,06,47,21.20
2006,07,22,06,48,21.20
2006,07,22,06,49,21.30
2006,07,22,06,50,21.30
2006,07,22,06,51,21.30
2006,07,22,06,52,21.30
2006,07,22,06,53,21.30
2006,07,22,06,54,21.40
2006,07,22,06,55,21.40
2006,07,22,06,56,21.40
2006,07,22,06,57,21.40
2006,07,22,06,58,21.40
2006,07,22,06,59,21.40
2006,07,22,07,00,21.40
2006,07,22,07,01,21.50
2006,07,22,07,02,21.60
2006,07,22,07,03,21.60
2006,07,22,07,04,21.60
2006,07,22,07,05,21.60
2006,07,22,07,06,21.60
2006,07,22,07,07,21.70
2006,07,22,07,08,21.80
2006,07,22,07,09,21.90
2006,07,22,07,10,21.90
2006,07,22,07,11,22.00
2006,07,22,07,12,22.00
2006,07,22,07,13,22.10
2006,07,22,07,14,22.20
2006,07,22,07,15,22.20
2006,07,22,07,16,22.30
2006,07,22,07,17,22.30
2006,07,22,07,18,22.40
2006,07,22,07,19,22.40
2006,07,22,07,20,22.40
2006,07,22,07,21,22.50
2006,07,22,07,22,22.50
2006,07,22,07,23,22.50
2006,07,22,07,24,22.60
2006,07,22,07,25,22.60
2006,07,22,07,26,22.70
2006,07,22,07,27,22.70
2006,07,22,07,28,22.80
2006,07,22,07,29,22.80
2006,07,22,07,30,22.90
2006,07,22,07,31,22.90
2006,07,22,07,32,22.90
2006,07,22,07,33,23.00
2006,07,22,07,34,23.10
2006,07,22,07,35,23.20
2006,07,22,07,36,23.30
2006,07,22,07,37,23.30
2006,07,22,07,38,23.40
2006,07,22,07,39,23.40
2006,07,22,07,40,23.60
2006,07,22,07,41,23.70
2006,07,22,07,42,23.70
2006,07,22,07,43,23.80
2006,07,22,07,44,23.90
2006,07,22,07,45,24.00
2006,07,22,07,46,24.10
2006,07,22,07,47,24.20
2006,07,22,07,48,24.30
2006,07,22,07,49,24.40
2006,07,22,07,50,24.50
2006,07,22,07,51,24.50
2006,07,22,07,52,24.60
2006,07,22,07,53,24.70
2006,07,22,07,54,24.80
2006,07,22,07,55,24.80
2006,07,22,07,56,24.90
2006,07,22,07,57,25.00
2006,07,22,07,58,25.00
2006,07,22,07,59,25.10
2006,07,22,08,00,25.10
2006,07,22,08,01,25.10
2006,07,22,08,02,25.20
2006,07,22,08,03,25.20
2006,07,22,08,04,25.20
2006,07,22,08,05,25.20
2006,07,22,08,06,25.20
2006,07,22,08,07,25.30
2006,07,22,08,08,25.20
2006,07,22,08,09,25.20
2006,07,22,08,10,25.20
2006,07,22,08,11,25.20
2006,07,22,08,12,25.20
2006,07,22,08,13,25.20
2006,07,22,08,14,25.20
2006,07,22,08,15,25.20
2006,07,22,08,16,25.20
2006,07,22,08,17,25.20
2006,07,22,08,18,25.20
2006,07,22,08,19,25.20
2006,07,22,08,20,25.20
2006,07,22,08,21,25.20
2006,07,22,08,22,25.20
2006,07,22,08,23,25.20
2006,07,22,08,24,25.30
2006,07,22,08,25,25.30
2006,07,22,08,26,25.40
2006,07,22,08,27,25.40
2006,07,22,08,28,25.50
2006,07,22,08,29,25.60
2006,07,22,08,30,25.60
2006,07,22,08,31,25.70
2006,07,22,08,32,25.70
2006,07,22,08,33,25.80
2006,07,22,08,34,25.90
2006,07,22,08,35,26.00
2006,07,22,08,36,26.00
2006,07,22,08,37,26.20
2006,07,22,08,38,26.30
2006,07,22,08,39,26.40
2006,07,22,08,40,26.40
2006,07,22,08,41,26.60
2006,07,22,08,42,26.60
2006,07,22,08,43,26.60
2006,07,22,08,44,26.70
2006,07,22,08,45,26.80
2006,07,22,08,46,26.90
2006,07,22,08,47,27.00
2006,07,22,08,48,27.20
2006,07,22,08,49,27.30
2006,07,22,08,50,27.30
2006,07,22,08,51,27.40
2006,07,22,08,52,27.50
2006,07,22,08,53,27.60
2006,07,22,08,54,27.80
2006,07,22,08,55,27.90
2006,07,22,08,56,28.00
2006,07,22,08,57,28.00
2006,07,22,08,58,28.10
2006,07,22,08,59,28.10
2006,07,22,09,00,28.20
2006,07,22,09,01,28.30
2006,07,22,09,02,28.30
2006,07,22,09,03,28.30
2006,07,22,09,04,28.40
2006,07,22,09,05,28.40
2006,07,22,09,06,28.40
2006,07,22,09,07,28.40
2006,07,22,09,08,28.40
2006,07,22,09,09,28.40
2006,07,22,09,10,28.40
2006,07,22,09,11,28.40
2006,07,22,09,12,28.50
2006,07,22,09,13,28.60
2006,07,22,09,14,28.60
2006,07,22,09,15,28.70
2006,07,22,09,16,28.80
2006,07,22,09,17,28.90
2006,07,22,09,18,28.20
2006,07,22,09,19,27.00
2006,07,22,09,20,25.80
2006,07,22,09,21,24.90
2006,07,22,09,22,23.90
2006,07,22,09,23,22.70
2006,07,22,09,24,22.00
2006,07,22,09,25,21.50
2006,07,22,09,26,21.30
2006,07,22,09,27,21.20
2006,07,22,09,28,21.30
2006,07,22,09,29,21.40
2006,07,22,09,30,21.50
2006,07,22,09,31,21.60
2006,07,22,09,32,21.70
2006,07,22,09,33,22.00
2006,07,22,09,34,22.20
2006,07,22,09,35,22.40
2006,07,22,09,36,22.60
2006,07,22,09,37,22.70
2006,07,22,09,38,23.00
2006,07,22,09,39,23.20
2006,07,22,09,40,23.40
2006,07,22,09,41,23.50
2006,07,22,09,42,23.60
2006,07,22,09,43,23.70
2006,07,22,09,44,23.80
2006,07,22,09,45,23.90
2006,07,22,09,46,24.00
2006,07,22,09,47,24.00
2006,07,22,09,48,23.80
2006,07,22,09,49,23.70
2006,07,22,09,50,23.70
2006,07,22,09,51,23.70
2006,07,22,09,52,23.70
2006,07,22,09,53,23.60
2006,07,22,09,54,23.50
2006,07,22,09,55,23.40
2006,07,22,09,56,23.50
2006,07,22,09,57,23.60
2006,07,22,09,58,23.70
2006,07,22,09,59,23.80
2006,07,22,10,00,24.00
2006,07,22,10,01,24.20
2006,07,22,10,02,24.40
2006,07,22,10,03,24.50
2006,07,22,10,04,24.80
2006,07,22,10,05,25.00
2006,07,22,10,06,25.30
2006,07,22,10,07,25.40
2006,07,22,10,08,25.70
2006,07,22,10,09,25.90
2006,07,22,10,10,26.00
2006,07,22,10,11,26.10
2006,07,22,10,12,26.50
2006,07,22,10,13,26.80
2006,07,22,10,14,27.00
2006,07,22,10,15,27.30
2006,07,22,10,16,27.40
2006,07,22,10,17,27.60
2006,07,22,10,18,27.80
2006,07,22,10,19,27.80
2006,07,22,10,20,27.80
2006,07,22,10,21,27.80
2006,07,22,10,22,27.70
2006,07,22,10,23,27.60
2006,07,22,10,24,27.50
2006,07,22,10,25,27.40
2006,07,22,10,26,27.40
2006,07,22,10,27,27.40
2006,07,22,10,28,27.30
2006,07,22,10,29,27.50
2006,07,22,10,30,27.60
2006,07,22,10,31,27.70
2006,07,22,10,32,27.80
2006,07,22,10,33,27.90
2006,07,22,10,34,27.80
2006,07,22,10,35,27.70
2006,07,22,10,36,27.30
2006,07,22,10,37,26.50
2006,07,22,10,38,25.50
2006,07,22,10,39,24.50
2006,07,22,10,40,24.20
2006,07,22,10,41,23.60
2006,07,22,10,42,23.30
2006,07,22,10,43,23.20
2006,07,22,10,44,23.20
2006,07,22,10,45,23.20
2006,07,22,10,46,23.40
2006,07,22,10,47,23.60
2006,07,22,10,48,23.70
2006,07,22,10,49,23.70
2006,07,22,10,50,23.70
2006,07,22,10,51,23.70
2006,07,22,10,52,23.70
2006,07,22,10,53,23.70
2006,07,22,10,54,23.70
2006,07,22,10,55,23.70
2006,07,22,10,56,23.60
2006,07,22,10,57,23.50
2006,07,22,10,58,23.40
2006,07,22,10,59,23.50
2006,07,22,11,00,23.40
2006,07,22,11,01,23.50
2006,07,22,11,02,23.60
2006,07,22,11,03,23.70
2006,07,22,11,04,23.80
2006,07,22,11,05,23.90
2006,07,22,11,06,24.10
2006,07,22,11,07,24.20
2006,07,22,11,08,24.20
2006,07,22,11,09,24.30
2006,07,22,11,10,24.30
2006,07,22,11,11,24.30
2006,07,22,11,12,24.30
2006,07,22,11,13,24.40
2006,07,22,11,14,24.50
2006,07,22,11,15,24.80
2006,07,22,11,16,24.90
2006,07,22,11,17,25.00
2006,07,22,11,18,25.00
2006,07,22,11,19,25.10
2006,07,22,11,20,25.10
2006,07,22,11,21,25.00
2006,07,22,11,22,25.00
2006,07,22,11,23,25.10
2006,07,22,11,24,25.10
2006,07,22,11,25,25.00
2006,07,22,11,26,25.00
2006,07,22,11,27,25.00
2006,07,22,11,28,25.10
2006,07,22,11,29,25.30
2006,07,22,11,30,25.50
2006,07,22,11,31,25.70
2006,07,22,11,32,25.70
2006,07,22,11,33,25.50
2006,07,22,11,34,25.40
2006,07,22,11,35,25.30
2006,07,22,11,36,25.10
2006,07,22,11,37,25.10
2006,07,22,11,38,25.00
2006,07,22,11,39,24.90
2006,07,22,11,40,24.90
2006,07,22,11,41,24.90
2006,07,22,11,42,25.00
2006,07,22,11,43,25.10
2006,07,22,11,44,25.20
2006,07,22,11,45,25.30
2006,07,22,11,46,25.20
2006,07,22,11,47,25.30
2006,07,22,11,48,25.40
2006,07,22,11,49,25.60
2006,07,22,11,50,25.70
2006,07,22,11,51,25.90
2006,07,22,11,52,26.10
2006,07,22,11,53,26.30
2006,07,22,11,54,26.40
2006,07,22,11,55,26.60
2006,07,22,11,56,26.70
2006,07,22,11,57,26.90
2006,07,22,11,58,27.10
2006,07,22,11,59,27.20
2006,07,22,12,00,27.30
2006,07,22,12,01,27.30
2006,07,22,12,02,27.40
2006,07,22,12,03,27.40
2006,07,22,12,04,27.50
2006,07,22,12,05,27.60
2006,07,22,12,06,27.60
2006,07,22,12,07,27.60
2006,07,22,12,08,27.70
2006,07,22,12,09,27.80
2006,07,22,12,10,28.00
2006,07,22,12,11,28.00
2006,07,22,12,12,28.30
2006,07,22,12,13,28.30
2006,07,22,12,14,28.30
2006,07,22,12,15,28.40
2006,07,22,12,16,28.40
2006,07,22,12,17,28.50
2006,07,22,12,18,28.60
2006,07,22,12,19,28.60
2006,07,22,12,20,28.60
2006,07,22,12,21,28.70
2006,07,22,12,22,28.70
2006,07,22,12,23,28.70
2006,07,22,12,24,28.80
2006,07,22,12,25,28.90
2006,07,22,12,26,28.90
2006,07,22,12,27,29.00
2006,07,22,12,28,29.10
2006,07,22,12,29,29.20
2006,07,22,12,30,29.40
2006,07,22,12,31,29.50
2006,07,22,12,32,29.70
2006,07,22,12,33,29.80
2006,07,22,12,34,29.90
2006,07,22,12,35,30.00
2006,07,22,12,36,30.20
2006,07,22,12,37,30.30
2006,07,22,12,38,30.40
2006,07,22,12,39,30.40
2006,07,22,12,40,30.60
2006,07,22,12,41,30.60
2006,07,22,12,42,30.60
2006,07,22,12,43,30.80
2006,07,22,12,44,30.90
2006,07,22,12,45,30.90
2006,07,22,12,46,31.00
2006,07,22,12,47,31.10
2006,07,22,12,48,31.10
2006,07,22,12,49,31.10
2006,07,22,12,50,31.10
2006,07,22,12,51,31.00
2006,07,22,12,52,31.00
2006,07,22,12,53,31.10
2006,07,22,12,54,31.20
2006,07,22,12,55,31.20
2006,07,22,12,56,31.20
2006,07,22,12,57,31.30
2006,07,22,12,58,31.30
2006,07,22,12,59,31.50
2006,07,22,13,00,31.60
2006,07,22,13,01,31.70
2006,07,22,13,02,31.90
2006,07,22,13,03,32.00
2006,07,22,13,04,32.10
2006,07,22,13,05,32.00
2006,07,22,13,06,32.00
2006,07,22,13,07,32.10
2006,07,22,13,08,32.20
2006,07,22,13,09,32.20
2006,07,22,13,10,32.30
2006,07,22,13,11,32.30
2006,07,22,13,12,32.40
2006,07,22,13,13,32.50
2006,07,22,13,14,32.60
2006,07,22,13,15,32.60
2006,07,22,13,16,32.80
2006,07,22,13,17,33.00
2006,07,22,13,18,33.10
2006,07,22,13,19,33.10
2006,07,22,13,20,33.20
2006,07,22,13,21,33.30
2006,07,22,13,22,33.40
2006,07,22,13,23,33.40
2006,07,22,13,24,33.40
2006,07,22,13,25,33.50
2006,07,22,13,26,33.50
2006,07,22,13,27,33.60
2006,07,22,13,28,33.70
2006,07,22,13,29,33.90
2006,07,22,13,30,34.10
2006,07,22,13,31,34.00
2006,07,22,13,32,34.00
2006,07,22,13,33,33.90
2006,07,22,13,34,34.00
2006,07,22,13,35,33.70
2006,07,22,13,36,33.20
2006,07,22,13,37,32.00
2006,07,22,13,38,31.00
2006,07,22,13,39,30.50
2006,07,22,13,40,30.10
2006,07,22,13,41,29.80
2006,07,22,13,42,29.60
2006,07,22,13,43,29.50
2006,07,22,13,44,29.00
2006,07,22,13,45,28.70
2006,07,22,13,46,28.50
2006,07,22,13,47,28.50
2006,07,22,13,48,28.50
2006,07,22,13,49,28.40
2006,07,22,13,50,28.50
2006,07,22,13,51,28.60
2006,07,22,13,52,28.80
2006,07,22,13,53,28.80
2006,07,22,13,54,28.70
2006,07,22,13,55,28.50
2006,07,22,13,56,28.40
2006,07,22,13,57,28.20
2006,07,22,13,58,28.00
2006,07,22,13,59,28.00
2006,07,22,14,00,28.10
2006,07,22,14,01,28.20
2006,07,22,14,02,28.20
2006,07,22,14,03,28.00
2006,07,22,14,04,28.00
2006,07,22,14,05,28.00
2006,07,22,14,06,28.00
2006,07,22,14,07,28.00
2006,07,22,14,08,28.00
2006,07,22,14,09,28.30
2006,07,22,14,10,28.30
2006,07,22,14,11,28.10
2006,07,22,14,12,27.90
2006,07,22,14,13,27.70
2006,07,22,14,14,27.60
2006,07,22,14,15,27.50
2006,07,22,14,16,27.40
2006,07,22,14,17,27.50
2006,07,22,14,18,27.60
2006,07,22,14,19,27.60
2006,07,22,14,20,27.70
2006,07,22,14,21,27.90
2006,07,22,14,22,28.00
2006,07,22,14,23,28.00
2006,07,22,14,24,28.00
2006,07,22,14,25,27.90
2006,07,22,14,26,27.90
2006,07,22,14,27,28.00
2006,07,22,14,28,28.00
2006,07,22,14,29,28.10
2006,07,22,14,30,28.30
2006,07,22,14,31,28.30
2006,07,22,14,32,28.40
2006,07,22,14,33,28.30
2006,07,22,14,34,28.30
2006,07,22,14,35,28.30
2006,07,22,14,36,28.30
2006,07,22,14,37,28.40
2006,07,22,14,38,28.60
2006,07,22,14,39,28.80
2006,07,22,14,40,28.80
2006,07,22,14,41,29.00
2006,07,22,14,42,29.20
2006,07,22,14,43,29.20
2006,07,22,14,44,29.20
2006,07,22,14,45,29.20
2006,07,22,14,46,29.10
2006,07,22,14,47,29.10
2006,07,22,14,48,29.10
2006,07,22,14,49,28.90
2006,07,22,14,50,29.00
2006,07,22,14,51,29.10
2006,07,22,14,52,29.20
2006,07,22,14,53,29.30
2006,07,22,14,54,29.40
2006,07,22,14,55,29.40
2006,07,22,14,56,29.50
2006,07,22,14,57,29.60
2006,07,22,14,58,29.50
2006,07,22,14,59,29.50
2006,07,22,15,00,29.40
2006,07,22,15,01,29.40
2006,07,22,15,02,29.50
2006,07,22,15,03,29.60
2006,07,22,15,04,29.80
2006,07,22,15,05,30.00
2006,07,22,15,06,30.20
2006,07,22,15,07,30.00
2006,07,22,15,08,29.80
2006,07,22,15,09,29.70
2006,07,22,15,10,29.60
2006,07,22,15,11,29.60
2006,07,22,15,12,29.60
2006,07,22,15,13,29.50
2006,07,22,15,14,29.40
2006,07,22,15,15,29.50
2006,07,22,15,16,29.60
2006,07,22,15,17,29.60
2006,07,22,15,18,29.50
2006,07,22,15,19,29.50
2006,07,22,15,20,29.60
2006,07,22,15,21,29.80
2006,07,22,15,22,29.80
2006,07,22,15,23,29.90
2006,07,22,15,24,29.80
2006,07,22,15,25,29.90
2006,07,22,15,26,29.90
2006,07,22,15,27,29.80
2006,07,22,15,28,29.90
2006,07,22,15,29,29.90
2006,07,22,15,30,29.90
2006,07,22,15,31,29.80
2006,07,22,15,32,30.00
2006,07,22,15,33,30.10
2006,07,22,15,34,30.20
2006,07,22,15,35,30.20
2006,07,22,15,36,30.30
2006,07,22,15,37,30.30
2006,07,22,15,38,30.30
2006,07,22,15,39,30.30
2006,07,22,15,40,30.30
2006,07,22,15,41,30.40
2006,07,22,15,42,30.30
2006,07,22,15,43,30.30
2006,07,22,15,44,30.30
2006,07,22,15,45,30.40
2006,07,22,15,46,30.60
2006,07,22,15,47,30.70
2006,07,22,15,48,30.70
2006,07,22,15,49,30.70
2006,07,22,15,50,30.60
2006,07,22,15,51,30.60
2006,07,22,15,52,30.60
2006,07,22,15,53,30.60
2006,07,22,15,54,30.60
2006,07,22,15,55,30.60
2006,07,22,15,56,30.60
2006,07,22,15,57,30.60
2006,07,22,15,58,30.70
2006,07,22,15,59,30.80
2006,07,22,16,00,30.90
2006,07,22,16,01,31.00
2006,07,22,16,02,31.00
2006,07,22,16,03,31.00
2006,07,22,16,04,31.00
2006,07,22,16,05,30.90
2006,07,22,16,06,30.80
2006,07,22,16,07,30.60
2006,07,22,16,08,30.60
2006,07,22,16,09,30.60
2006,07,22,16,10,30.60
2006,07,22,16,11,30.40
2006,07,22,16,12,30.40
2006,07,22,16,13,30.60
2006,07,22,16,14,30.80
2006,07,22,16,15,30.90
2006,07,22,16,16,30.80
2006,07,22,16,17,30.80
2006,07,22,16,18,31.00
2006,07,22,16,19,31.00
2006,07,22,16,20,31.10
2006,07,22,16,21,31.20
2006,07,22,16,22,31.30
2006,07,22,16,23,31.40
2006,07,22,16,24,31.40
2006,07,22,16,25,31.10
2006,07,22,16,26,30.80
2006,07,22,16,27,30.60
2006,07,22,16,28,30.40
2006,07,22,16,29,30.30
2006,07,22,16,30,30.10
2006,07,22,16,31,29.90
2006,07,22,16,32,29.70
2006,07,22,16,33,29.60
2006,07,22,16,34,29.30
2006,07,22,16,35,29.30
2006,07,22,16,36,29.10
2006,07,22,16,37,29.00
2006,07,22,16,38,28.90
2006,07,22,16,39,28.90
2006,07,22,16,40,29.00
2006,07,22,16,41,29.10
2006,07,22,16,42,29.00
2006,07,22,16,43,28.90
2006,07,22,16,44,28.90
2006,07,22,16,45,28.90
2006,07,22,16,46,28.90
2006,07,22,16,47,28.80
2006,07,22,16,48,28.80
2006,07,22,16,49,28.90
2006,07,22,16,50,29.10
2006,07,22,16,51,29.20
2006,07,22,16,52,29.30
2006,07,22,16,53,29.30
2006,07,22,16,54,29.10
2006,07,22,16,55,29.10
2006,07,22,16,56,28.90
2006,07,22,16,57,28.90
2006,07,22,16,58,28.90
2006,07,22,16,59,28.90
2006,07,22,17,00,29.10
2006,07,22,17,01,29.10
2006,07,22,17,02,29.10
2006,07,22,17,03,29.20
2006,07,22,17,04,29.30
2006,07,22,17,05,29.40
2006,07,22,17,06,29.40
2006,07,22,17,07,29.40
2006,07,22,17,08,29.40
2006,07,22,17,09,29.40
2006,07,22,17,10,29.30
2006,07,22,17,11,29.30
2006,07,22,17,12,29.30
2006,07,22,17,13,29.30
2006,07,22,17,14,29.20
2006,07,22,17,15,29.20
2006,07,22,17,16,29.20
2006,07,22,17,17,29.20
2006,07,22,17,18,29.20
2006,07,22,17,19,29.20